This is the latest recevied weather packets stored in our database for station/object OK5TVR-5. If no packets are shown the sender has not sent any weather packets the latest 10 day(s).
| Time | Temp. | Humidity | Pressure | Rain* | Wind** | Luminosity | Snow |
|---|---|---|---|---|---|---|---|
| 1777455065 | 15° C | 31% | 1018.3 hPa | 0 mm | - | 366 W/m² | - |
| 1777454163 | 14.44° C | 29% | 1018.3 hPa | 0 mm | - | 348 W/m² | - |
| 1777454163 | 14.44° C | 29% | 1018.3 hPa | 0 mm | - | 348 W/m² | - |
| 1777453264 | 13.89° C | 33% | 1018.4 hPa | 0 mm | - | 357 W/m² | - |
| 1777452361 | 13.89° C | 30% | 1018.4 hPa | 0 mm | - | 332 W/m² | - |
| 1777451460 | 13.89° C | 30% | 1018.4 hPa | 0 mm | - | 312 W/m² | - |
| 1777450560 | 13.33° C | - | - | 0 mm | - | - | - |
| 1777450559 | 13.33° C | 28% | 1018.5 hPa | 0 mm | - | 274 W/m² | - |
| 1777449659 | 12.78° C | 34% | 1018.6 hPa | 0 mm | - | 247 W/m² | - |
| 1777448757 | 12.22° C | 34% | 1017.6 hPa | 0 mm | - | 210 W/m² | - |
| 1777448757 | 12.22° C | 34% | 1017.6 hPa | 0 mm | - | 210 W/m² | - |
| 1777447854 | 12.22° C | 36% | 1017.6 hPa | 0 mm | - | 169 W/m² | - |
| 1777447854 | 12.22° C | 36% | 1017.6 hPa | 0 mm | - | 169 W/m² | - |
| 1777446954 | 11.67° C | 35% | 1018.7 hPa | 0 mm | - | 134 W/m² | - |
| 1777446954 | 11.67° C | 35% | 1018.7 hPa | 0 mm | - | 134 W/m² | - |
| 1777446053 | 11.11° C | 35% | 1018.8 hPa | 0 mm | - | - | - |
| 1777446052 | 11.11° C | 35% | 1018.8 hPa | 0 mm | - | - | - |
| 1777445152 | 10.56° C | 39% | 1018.8 hPa | 0 mm | - | - | - |
| 1777444250 | 10° C | 37% | 1018.9 hPa | 0 mm | - | - | - |
| 1777444250 | 10° C | 37% | 1018.9 hPa | 0 mm | - | - | - |
| 1777443351 | 9.44° C | 41% | 1019 hPa | 0 mm | - | - | - |
| 1777442450 | 8.33° C | 42% | 1018.1 hPa | 0 mm | - | - | - |
| 1777442450 | 8.33° C | 42% | 1018.1 hPa | 0 mm | - | - | - |
| 1777441548 | 7.22° C | 46% | 1018.2 hPa | 0 mm | - | - | - |
| 1777441548 | 7.22° C | 46% | 1018.2 hPa | 0 mm | - | - | - |
* Rain latest hour (hover to see other rain measurements)
** Current wind speed in m/s (hover to see current wind gust speed)